Paynesville, MN

1:10 AM CDT on April 21, 2018 (GMT -0500)
Paynesville

Weather History for KPEX - April, 2014

Change the Weather History Date:

Sunday, April 6, 2014

  Actual Average (KLJF) Record (KLJF)
Temperature  
Mean Temperature 46 °F -  
Max Temperature 59 °F 54 °F 86 °F (1991)
Min Temperature 34 °F 30 °F 5 °F (1979)
Degree Days  
Heating Degree Days 18    
Moisture  
Dew Point 34 °F    
Average Humidity 66    
Maximum Humidity 88    
Minimum Humidity 36    
Precipitation  
Precipitation 0.00 in - - ()
Sea Level Pressure  
Sea Level Pressure 29.82 in    
Wind  
Wind Speed 5 mph (SSW)    
Max Wind Speed 14 mph    
Max Gust Speed 20 mph    
Visibility 10 miles    
Events Thunderstorm    
Averages and records for this station are not official NWS values.
T = Trace of Precipitation, MM = Missing Value Source: NWS Daily Summary

Daily Weather History Graph

Daily Weather History Graph

Search for Another Location

Airport or City:

Astronomy

Apr. 06, 2014 Rise Set
Actual Time 6:49 AM CDT 7:53 PM CDT
Civil Twilight 6:19 AM CDT 8:23 PM CDT
Nautical Twilight 5:43 AM CDT 9:00 PM CDT
Astronomical Twilight 5:05 AM CDT 9:38 PM CDT
Moon 11:42 AM CDT (4/6) 1:59 AM CDT (4/6)
Length of Visible Light 14h 03m
Length of Day
13h 03m
Waxing Crescent, 44% of the Moon is Illuminated
Apr 6
Waxing Crescent
Apr 7
First Quarter
Apr 15
Full
Apr 22
Last Quarter
Apr 29
New

Hourly Weather History & Observations

Time (CDT) Temp. Windchill Dew Point Humidity Pressure Visibility Wind Dir Wind Speed Gust Speed Precip Events Conditions
12:12 AM 41.5 °F 34.6 °F 32.4 °F 70% 29.88 in 10.0 mi SSE 12.7 mph 17.3 mph N/A   Clear
12:32 AM 41.5 °F 34.2 °F 32.0 °F 69% 29.87 in 10.0 mi SSE 13.8 mph 19.6 mph N/A   Clear
12:52 AM 41.0 °F 36.4 °F 32.0 °F 70% 29.87 in 10.0 mi SSE 6.9 mph 18.4 mph N/A   Clear
1:12 AM 40.1 °F 33.2 °F 32.0 °F 73% 29.87 in 10.0 mi SSE 11.5 mph 16.1 mph N/A   Clear
1:32 AM 40.3 °F 33.4 °F 31.8 °F 72% 29.86 in 10.0 mi SSE 11.5 mph 17.3 mph N/A   Scattered Clouds
1:52 AM 40.3 °F 33.4 °F 31.5 °F 71% 29.85 in 10.0 mi SSE 11.5 mph 18.4 mph N/A   Mostly Cloudy
2:12 AM 40.1 °F 32.7 °F 31.1 °F 70% 29.85 in 10.0 mi South 12.7 mph 19.6 mph N/A   Scattered Clouds
2:32 AM 40.1 °F 34.1 °F 30.9 °F 70% 29.85 in 10.0 mi South 9.2 mph 16.1 mph N/A   Clear
2:51 AM 39.6 °F 33.5 °F 30.7 °F 71% 29.85 in 10.0 mi South 9.2 mph - N/A   Clear
3:12 AM 39.2 °F 37.0 °F 30.6 °F 71% 29.84 in 10.0 mi South 3.5 mph - N/A   Clear
3:32 AM 38.5 °F - 30.6 °F 73% 29.84 in 10.0 mi Calm Calm - N/A   Clear
3:52 AM 37.8 °F 34.2 °F 30.7 °F 76% 29.82 in 10.0 mi South 4.6 mph - N/A   Clear
4:12 AM 37.4 °F 32.1 °F 30.6 °F 76% 29.82 in 10.0 mi South 6.9 mph - N/A   Clear
4:32 AM 37.4 °F 30.3 °F 30.6 °F 76% 29.82 in 10.0 mi South 10.4 mph - N/A   Scattered Clouds
4:52 AM 36.7 °F 29.9 °F 30.6 °F 78% 29.81 in 10.0 mi South 9.2 mph - N/A   Clear
5:12 AM 36.7 °F 31.2 °F 30.4 °F 78% 29.81 in 10.0 mi South 6.9 mph - N/A   Clear
5:32 AM 36.1 °F - 30.2 °F 79% 29.81 in 10.0 mi Calm Calm - N/A   Clear
5:52 AM 35.6 °F - 30.2 °F 81% 29.81 in 10.0 mi Calm Calm - N/A   Clear
6:12 AM 34.9 °F - 30.2 °F 83% 29.81 in 10.0 mi Calm Calm - N/A   Clear
6:32 AM 34.5 °F - 30.2 °F 84% 29.82 in 10.0 mi Calm Calm - N/A   Clear
6:52 AM 34.0 °F - 30.2 °F 86% 29.82 in 10.0 mi Calm Calm - N/A   Clear
7:12 AM 34.0 °F - 30.2 °F 86% 29.82 in 10.0 mi Calm Calm - N/A   Clear
7:32 AM 34.2 °F - 30.7 °F 87% 29.82 in 10.0 mi Calm Calm - N/A   Clear
7:51 AM 34.3 °F - 31.1 °F 88% 29.83 in 10.0 mi Calm Calm - N/A   Clear
8:11 AM 35.8 °F - 31.5 °F 84% 29.83 in 10.0 mi Calm Calm - N/A   Clear
8:32 AM 36.9 °F - 32.0 °F 83% 29.84 in 10.0 mi Calm Calm - N/A   Clear
8:52 AM 38.3 °F - 32.2 °F 79% 29.84 in 10.0 mi Calm Calm - N/A   Clear
9:12 AM 40.1 °F - 33.4 °F 77% 29.83 in 10.0 mi Calm Calm - N/A   Clear
9:32 AM 41.2 °F - 33.6 °F 74% 29.83 in 10.0 mi Calm Calm - N/A   Clear
9:52 AM 43.0 °F - 34.2 °F 71% 29.82 in 10.0 mi Calm Calm - N/A   Clear
10:12 AM 44.6 °F - 34.9 °F 69% 29.83 in 10.0 mi Calm Calm - N/A   Clear
10:32 AM 45.3 °F - 36.0 °F 70% 29.83 in 10.0 mi Calm Calm - N/A   Clear
10:53 AM 45.7 °F - 36.5 °F 70% 29.83 in 10.0 mi Calm Calm - N/A   Clear
11:12 AM 46.6 °F - 36.7 °F 68% 29.83 in 10.0 mi Calm Calm - N/A   Clear
11:32 AM 48.4 °F - 37.2 °F 65% 29.84 in 10.0 mi Calm Calm - N/A   Clear
11:52 AM 50.0 °F - 38.8 °F 66% 29.84 in 10.0 mi Calm Calm - N/A   Clear
12:12 PM 51.1 °F - 37.8 °F 60% 29.84 in 10.0 mi Calm Calm - N/A   Clear
12:32 PM 52.0 °F - 39.2 °F 62% 29.83 in 10.0 mi Calm Calm - N/A   Clear
12:52 PM 53.6 °F - 39.4 °F 59% 29.82 in 10.0 mi Calm Calm - N/A   Clear
1:11 PM 54.3 °F - 38.5 °F 55% 29.82 in 10.0 mi Calm Calm - N/A   Clear
1:32 PM 55.4 °F - 38.7 °F 53% 29.82 in 10.0 mi Calm Calm - N/A   Clear
1:52 PM 55.8 °F - 39.4 °F 54% 29.82 in 10.0 mi SW 5.8 mph - N/A   Clear
2:12 PM 56.5 °F - 41.0 °F 56% 29.81 in 10.0 mi Calm Calm - N/A   Clear
2:32 PM 57.0 °F - 40.8 °F 55% 29.81 in 10.0 mi WSW 5.8 mph - N/A   Clear
2:52 PM 58.1 °F - 36.7 °F 45% 29.80 in 10.0 mi Calm Calm - N/A   Clear
3:12 PM 58.6 °F - 38.1 °F 46% 29.80 in 10.0 mi NW 8.1 mph - N/A   Clear
3:31 PM 59.0 °F - 36.1 °F 42% 29.80 in 10.0 mi NW 9.2 mph - N/A   Clear
3:52 PM 58.5 °F - 36.7 °F 44% 29.80 in 10.0 mi NNW 8.1 mph - N/A   Clear
4:11 PM 59.0 °F - 37.0 °F 44% 29.79 in 10.0 mi NW 5.8 mph - N/A   Clear
4:32 PM 59.0 °F - 35.2 °F 41% 29.79 in 10.0 mi Calm Calm - N/A   Clear
4:52 PM 59.0 °F - 34.9 °F 40% 29.79 in 10.0 mi NNW 6.9 mph - N/A   Clear
5:12 PM 59.0 °F - 32.2 °F 36% 29.79 in 10.0 mi NNW 8.1 mph - N/A   Clear
5:32 PM 59.0 °F - 33.1 °F 38% 29.79 in 10.0 mi NW 5.8 mph - N/A   Clear
5:52 PM 58.3 °F - 33.6 °F 39% 29.80 in 10.0 mi NNW 6.9 mph - N/A   Clear
6:12 PM 58.3 °F - 33.8 °F 40% 29.80 in 10.0 mi Calm Calm - N/A   Clear
6:32 PM 58.1 °F - 34.0 °F 40% 29.80 in 10.0 mi Calm Calm - N/A   Clear
6:52 PM 56.5 °F - 34.2 °F 43% 29.80 in 10.0 mi Calm Calm - N/A   Clear
7:12 PM 55.8 °F - 35.1 °F 46% 29.80 in 10.0 mi Calm Calm - N/A   Mostly Cloudy
7:32 PM 52.9 °F - 38.5 °F 58% 29.80 in 10.0 mi Calm Calm - N/A   Mostly Cloudy
7:52 PM 50.5 °F - 37.8 °F 62% 29.80 in 10.0 mi Calm Calm - N/A   Clear
8:12 PM 48.0 °F - 36.5 °F 64% 29.80 in 10.0 mi Calm Calm - N/A   Clear
8:32 PM 47.7 °F - 35.8 °F 63% 29.81 in 10.0 mi Calm Calm - N/A   Clear
8:51 PM 46.8 °F - 34.7 °F 63% 29.81 in 10.0 mi Calm Calm - N/A   Scattered Clouds
9:12 PM 44.6 °F - 34.7 °F 68% 29.82 in 10.0 mi Calm Calm - N/A   Scattered Clouds
9:32 PM 43.3 °F - 35.2 °F 73% 29.82 in 10.0 mi Calm Calm - N/A   Mostly Cloudy
9:52 PM 40.8 °F - 36.5 °F 85% 29.83 in 10.0 mi Calm Calm - N/A Thunderstorm Overcast
10:12 PM 41.0 °F - 36.7 °F 85% 29.84 in 10.0 mi Calm Calm - N/A   Overcast
10:32 PM 41.7 °F - 37.2 °F 84% 29.83 in 10.0 mi Calm Calm - N/A   Overcast
10:52 PM 41.4 °F - 37.4 °F 86% 29.84 in 10.0 mi Calm Calm - N/A   Overcast
11:12 PM 42.8 °F - 37.4 °F 81% 29.82 in 10.0 mi Calm Calm - N/A   Overcast
11:32 PM 43.0 °F - 36.1 °F 77% 29.82 in 10.0 mi Calm Calm - N/A   Overcast
11:51 PM 46.8 °F - 35.6 °F 65% 29.82 in 10.0 mi Calm Calm - N/A   Overcast